Weather History for Shreveport, LA

Change the Weather History Date:

Monday, April 28, 2014

  Actual Average Record
Temperature  
Mean Temperature 71 °F 68 °F  
Max Temperature 85 °F 80 °F 92 °F (1887)
Min Temperature 56 °F 57 °F 43 °F (1973)
Degree Days  
Heating Degree Days 0 1  
Month to date heating degree days 102 84  
Since 1 July heating degree days 2535 2217  
Cooling Degree Days 6 5  
Month to date cooling degree days 102 84  
Year to date cooling degree days 121 125  
Growing Degree Days 23 (Base 50)    
Moisture  
Dew Point 61 °F    
Average Humidity 60    
Maximum Humidity 93    
Minimum Humidity 26    
Precipitation  
Precipitation 0.13 in 0.14 in 5.52 in (1953)
Month to date precipitation 4.09 3.90  
Year to date precipitation 11.55 16.99  
Snow  
Snow 0.00 in - - ()
Month to date snowfall 0.0  
Since 1 July snowfall 1.0  
Snow Depth 0.00 in    
Sea Level Pressure  
Sea Level Pressure 29.58 in    
Wind  
Wind Speed 8 mph (SW)    
Max Wind Speed 31 mph    
Max Gust Speed 40 mph    
Visibility 8 miles    
Events Rain , Thunderstorm    
T = Trace of Precipitation, MM = Missing Value Source: NWS Daily Summary

Daily Weather History Graph

Daily Weather History Graph

Search for Another Location

Airport:

Trip Planner

Search our weather history database for the weather conditions in past years. The results will help you decide how hot, cold, wet, or windy it might be!

Date:

Astronomy

Apr. 28, 2014 Rise Set
Actual Time 6:31 AM CDT 7:54 PM CDT
Civil Twilight 6:05 AM CDT 8:20 PM CDT
Nautical Twilight 5:34 AM CDT 8:51 PM CDT
Astronomical Twilight 5:02 AM CDT 9:23 PM CDT
Moon 6:06 AM CDT (4/28) 7:34 PM CDT (4/28)
Length of Visible Light 14h 14m
Length of Day
13h 22m
Waning Crescent, 0% of the Moon is Illuminated
Apr 28
Waning Crescent
Apr 29
New
May 6
First Quarter
May 14
Full
May 21
Last Quarter

Hourly Weather History & Observations

Time (CDT) Temp. Heat Index Dew Point Humidity Pressure Visibility Wind Dir Wind Speed Gust Speed Precip Events Conditions
12:56 AM 75.9 °F - 70.0 °F 82% 29.52 in 7.0 mi South 11.5 mph - N/A   Mostly Cloudy
1:29 AM 75.2 °F - 69.8 °F 83% 29.52 in 7.0 mi South 11.5 mph - N/A   Mostly Cloudy
1:42 AM 75.2 °F - 69.8 °F 83% 29.52 in 7.0 mi South 12.7 mph 19.6 mph N/A   Mostly Cloudy
1:56 AM 75.9 °F - 69.1 °F 79% 29.50 in 7.0 mi South 13.8 mph - N/A   Overcast
2:17 AM 75.2 °F - 69.8 °F 83% 29.50 in 7.0 mi South 15.0 mph 24.2 mph N/A   Overcast
2:26 AM 77.0 °F - 69.8 °F 78% 29.51 in 7.0 mi South 13.8 mph 24.2 mph N/A   Overcast
2:37 AM 77.0 °F - 69.8 °F 78% 29.52 in 7.0 mi South 13.8 mph 23.0 mph N/A Thunderstorm Thunderstorm
2:56 AM 77.0 °F - 69.1 °F 76% 29.54 in 7.0 mi WSW 18.4 mph - N/A Thunderstorm Thunderstorm
3:41 AM 75.2 °F - 69.8 °F 83% 29.55 in 5.0 mi SSW 13.8 mph 19.6 mph 0.01 in Rain , Thunderstorm Thunderstorms and Rain
3:56 AM 73.9 °F - 71.1 °F 91% 29.52 in 5.0 mi South 11.5 mph - 0.02 in Rain , Thunderstorm Light Thunderstorms and Rain
4:22 AM 73.4 °F - 68.0 °F 83% 29.61 in 2.0 mi WSW 29.9 mph 40.3 mph 0.01 in Rain , Thunderstorm Thunderstorms and Rain
4:31 AM 71.6 °F - 66.2 °F 83% 29.55 in 3.0 mi SSW 12.7 mph 40.3 mph 0.09 in Rain , Thunderstorm Thunderstorms and Rain
4:56 AM 71.1 °F - 66.9 °F 87% 29.55 in 10.0 mi South 10.4 mph - 0.10 in Thunderstorm Thunderstorm
4:57 AM 69.8 °F - 66.2 °F 88% 29.56 in 10.0 mi South 9.2 mph - N/A   Overcast
5:06 AM 69.8 °F - 66.2 °F 88% 29.54 in 8.0 mi South 9.2 mph - 0.00 in Rain Light Rain
5:56 AM 70.0 °F - 66.9 °F 90% 29.57 in 7.0 mi SSW 9.2 mph - 0.00 in   Overcast
6:56 AM 66.9 °F - 64.0 °F 90% 29.57 in 10.0 mi SW 9.2 mph - N/A   Overcast
7:56 AM 68.0 °F - 63.0 °F 84% 29.61 in 10.0 mi South 8.1 mph - N/A   Mostly Cloudy
8:56 AM 69.8 °F - 64.4 °F 83% 29.63 in 10.0 mi SW 5.8 mph - N/A Rain Light Rain
9:56 AM 73.0 °F - 64.9 °F 76% 29.62 in 10.0 mi SSW 10.4 mph - 0.00 in   Mostly Cloudy
10:56 AM 75.9 °F - 66.9 °F 74% 29.63 in 10.0 mi SSW 8.1 mph - 0.00 in   Mostly Cloudy
11:56 AM 77.0 °F - 66.0 °F 69% 29.63 in 10.0 mi WSW 6.9 mph - 0.01 in   Overcast
12:56 PM 80.1 °F 80.7 °F 59.0 °F 48% 29.62 in 10.0 mi WSW 8.1 mph - N/A   Mostly Cloudy
1:56 PM 84.0 °F 83.3 °F 57.0 °F 40% 29.60 in 10.0 mi West 10.4 mph - N/A   Mostly Cloudy
2:56 PM 84.9 °F - 52.0 °F 32% 29.59 in 10.0 mi SW 11.5 mph - N/A   Mostly Cloudy
3:56 PM 84.9 °F - 48.0 °F 28% 29.57 in 10.0 mi West 12.7 mph 20.7 mph N/A   Partly Cloudy
4:56 PM 82.9 °F - 48.0 °F 29% 29.57 in 10.0 mi West 13.8 mph - N/A   Clear
5:56 PM 82.0 °F - 46.9 °F 29% 29.56 in 10.0 mi West 13.8 mph - N/A   Clear
6:56 PM 80.1 °F - 42.1 °F 26% 29.58 in 10.0 mi West 10.4 mph - N/A   Clear
7:56 PM 73.9 °F - 46.0 °F 37% 29.61 in 10.0 mi NW 5.8 mph - N/A   Clear
8:56 PM 66.0 °F - 48.9 °F 54% 29.62 in 10.0 mi Calm Calm - N/A   Clear
9:56 PM 62.1 °F - 51.1 °F 67% 29.64 in 10.0 mi Calm Calm - N/A   Clear
10:56 PM 62.1 °F - 48.9 °F 62% 29.65 in 10.0 mi Calm Calm - N/A   Clear
11:56 PM 61.0 °F - 52.0 °F 72% 29.65 in 10.0 mi NNE 4.6 mph - N/A   Clear